Regional Weather Roundup
Issued by NWS Newport/Morehead, NC

Current Version | Previous Version | Graphics & Text | Print | Product List | Glossary On
Versions: 1 2 3 4 5 6 7 8 9 10 11 12 13 14 15 16 17 18 19 20 21 22 23 24 25 26 27 28 29 30 31 32 33 34 35 36 37 38 39 40 41 42 43 44 45 46 47 48 49 50
585 ASUS42 KMHX 221313 RWRMHX WEATHER ROUNDUP FOR EASTERN NORTH CAROLINA NATIONAL WEATHER SERVICE NEWPORT/MOREHEAD CITY NC 800 AM EST WED NOV 22 2017 NOTE: "FAIR" INDICATES FEW OR NO CLOUDS BELOW 12,000 FEET WITH NO SIGNIFICANT WEATHER AND/OR OBSTRUCTIONS TO VISIBILITY NCZ015>017-031-032-045>047-102-103-221400- NORTH COAST CITY SKY/WX TMP DP RH WIND PRES REMARKS EDENTON FOG 60 59 96 CALM 29.92R VSB 1 ELIZABETH CITY CLOUDY 59 59 100 CALM 29.91R FOG KITTY HAWK CLOUDY N/A N/A N/A CALM 29.88R MANTEO CLOUDY 58 58 98 CALM 29.90S $$ NCZ045>047-081-094-103-104-221400- CENTRAL COAST CITY SKY/WX TMP DP RH WIND PRES REMARKS FRISCO SUNNY 60 60 100 CALM 29.89R $$ NCZ095-097-098-100-101-221400- SOUTHERN COAST CITY SKY/WX TMP DP RH WIND PRES REMARKS BEAUFORT FOG 58 58 100 CALM 29.91S VSB<1/4 CEDAR ISLAND NOT AVBL JACKSONVILLE NOT AVBL PINEY ISLAND FOG N/A N/A N/A SW3 29.91S VSB 1/4 WILMINGTON PTSUNNY 60 60 100 W7 29.94R $$ NCZ011>013-027>030-043-044-078>080-089-090>093-098-221400- COASTAL PLAIN CITY SKY/WX TMP DP RH WIND PRES REMARKS AHOSKIE DRIZZLE 52 52 100 CALM 29.93F CLINTON MOSUNNY 55 55 100 W3 29.95R ELIZABETHTOWN NOT AVBL GOLDSBORO PTSUNNY 57 53 86 W3 29.92R GREENVILLE MOSUNNY 55 54 94 CALM 29.95R HAVELOCK NOT AVBL KENANSVILLE CLOUDY 55 54 94 N3 29.94R KINSTON MOSUNNY 55 54 94 NW3 29.94R NEW BERN PTSUNNY 57 57 100 NW5 29.93R RICHLANDS CLOUDY 57 57 100 VRB6 29.94R FOG ROCKY MOUNT CLOUDY 54 54 100 NW6 29.94R WASHINGTON CLOUDY 56 56 97 NW6 29.92S WHITEVILLE CLOUDY 57 56 97 CALM 29.96R FOG $$ AMZ130-135-150-152-154-156-158-170-250-252-270-ANZ085-086-088-633-658-670-221400- MARINE OBSERVATIONS STATION/POSITION TIME TEMP WIND PRES WAVE SWELL AIR SEA DIR/SP/G HT/PER HT/PER (UTC) (F) (DEG/KT/KT) (MB) (FT/S) (FT/S) CHESAPEAKE LIGHT NOT AVBL 64 E VA BEACH 1250 61 62 40/ 6/ 8 1011.3 8/ 8 7/ 8 DUCK 1248 61 60 CALM / 3 1011.7 2 E DUCK 1300 61 N/A 4/ 7 OREGON INLET 1236 58 55 20/ 4/ 6 1011.9 13E OREGON INLT 1248 65 N/A 7/ 7 7/ 7 HATTERAS CG 1248 58 59 350/ 4/ 6 1011.7 DIAMOND BUOY 1300 67 340/ 10/ 14 1012.0 CAPE LOOKOUT 1200 300/ 8/ 9 1012.9 BEAUFORT LAB 1248 58 60 10/ 4/ 5 1012.8 30 SE NEW RVR IN 1208 64 66 350/ 10/ 14 1012.8 30 SE NEW RVR IN 1230 67 N/A 5/ 7 27 SE WRIGHTSVLE 1208 65 68 310/ 12/ 17 1012.5 5 SE WRIGHTSVLE 1208 61 63 300/ 6/ 12 1012.7 225 S CAPE HAT 1150 76 76 220/ 19/ 23 1011.4 8/ 9 5/ 9 41 SE CHARLESTON 1250 64 74 320/ 14/ 19 1014.5 4/ 7 3/ 7 $$

USA.gov is the U.S. government's official web portal to all federal, state and local government web resources and services.